Weather History for EGVO - November, 2013

Change the Weather History Date:

Friday, November 15, 2013

  Actual Average (EGUB) Record (EGUB)
Temperature  
Mean Temperature 40 °F -  
Max Temperature 48 °F 48 °F 59 °F (2006)
Min Temperature 32 °F 35 °F 23 °F (2007)
Degree Days  
Heating Degree Days 24    
Moisture  
Dew Point 33 °F    
Average Humidity 77    
Maximum Humidity 93    
Minimum Humidity 47    
Precipitation  
Precipitation 0.00 in - - ()
Sea Level Pressure  
Sea Level Pressure 30.50 in    
Wind  
Wind Speed 7 mph ()    
Max Wind Speed 13 mph    
Max Gust Speed -    
Visibility 8.8 miles    
Events      
Averages and records for this station are not official NWS values.
T = Trace of Precipitation, MM = Missing Value Source: Averaged Metar Reports

Daily Weather History Graph

Daily Weather History Graph

Search for Another Location

Airport or City:

Trip Planner

Search our weather history database for the weather conditions in past years. The results will help you decide how hot, cold, wet, or windy it might be!

Date:

Astronomy

Nov. 15, 2013 Rise Set
Actual Time 7:20 AM GMT 4:15 PM GMT
Civil Twilight 6:44 AM GMT 4:51 PM GMT
Nautical Twilight 6:03 AM GMT 5:32 PM GMT
Astronomical Twilight 5:24 AM GMT 6:11 PM GMT
Moon 3:14 PM GMT (11/15) 4:48 AM GMT (11/15)
Length of Visible Light 10h 07m
Length of Day
8h 54m
Waxing Gibbous, 95% of the Moon is Illuminated
Nov 15
Waxing Gibbous
Nov 17
Full
Nov 25
Last Quarter
Dec 3
New
Dec 9
First Quarter

Hourly Weather History & Observations

Time (GMT) Temp. Windchill Dew Point Humidity Pressure Visibility Wind Dir Wind Speed Gust Speed Precip Events Conditions
12:00 AM 39 °F - 34 °F 77% 30.45 in 9 mi NW 10.4 mph - -  
12:50 AM 39.2 °F 33.0 °F 33.8 °F 81% 30.45 in 6.2 mi NW 9.2 mph - N/A   Unknown
1:50 AM 37.4 °F 30.8 °F 33.8 °F 87% 30.45 in - NW 9.2 mph - N/A   Clear
2:50 AM 37.4 °F 30.8 °F 32.0 °F 81% 30.45 in - NW 9.2 mph - N/A   Clear
3:00 AM 38 °F - 32 °F 73% 30.48 in 11 mi NW 9.2 mph - -  
3:50 AM 37.4 °F 31.4 °F 32.0 °F 81% 30.45 in 6.2 mi WNW 8.1 mph - N/A   Partly Cloudy
4:50 AM 35.6 °F 30.7 °F 32.0 °F 87% 30.45 in 6.2 mi WNW 5.8 mph - N/A   Partly Cloudy
5:50 AM 35.6 °F 31.7 °F 32.0 °F 87% 30.48 in 6.2 mi WNW 4.6 mph - N/A   Scattered Clouds
6:00 AM 36 °F - 31 °F 77% 30.50 in 12 mi WNW 4.6 mph - -   Partly Cloudy
6:50 AM 33.8 °F 28.6 °F 32.0 °F 93% 30.48 in 6.2 mi WNW 5.8 mph - N/A   Mostly Cloudy
7:50 AM 33.8 °F 27.0 °F 30.2 °F 87% 30.51 in - WNW 8.1 mph - N/A   Clear
8:50 AM 37.4 °F 30.8 °F 32.0 °F 81% 30.51 in - NW 9.2 mph - N/A   Clear
9:00 AM 37 °F - 31 °F 72% 30.54 in 11 mi NW 9.2 mph - -   Clear
9:50 AM 41.0 °F 35.2 °F 32.0 °F 70% 30.51 in - NNW 9.2 mph - N/A   Clear
10:50 AM 44.6 °F 39.2 °F 33.8 °F 66% 30.51 in - NNW 10.4 mph - N/A   Clear
11:50 AM 46.4 °F 41.1 °F 33.8 °F 62% 30.51 in - North 11.5 mph - N/A   Clear
12:00 PM 46 °F - 34 °F 53% 30.52 in 12 mi North 11.5 mph - -   Clear
12:50 PM 48.2 °F - 33.8 °F 58% 30.48 in 6.2 mi North 12.7 mph - N/A   Partly Cloudy
1:50 PM 48.2 °F - 33.8 °F 58% 30.48 in 6.2 mi North 9.2 mph - N/A   Mostly Cloudy
2:50 PM 46.4 °F 41.9 °F 33.8 °F 62% 30.48 in - North 9.2 mph - N/A   Clear
3:00 PM 47 °F - 33 °F 47% 30.51 in 14 mi North 9.2 mph - -   Clear
3:50 PM 44.6 °F 40.7 °F 33.8 °F 66% 30.48 in - North 6.9 mph - N/A   Clear
4:50 PM 41.0 °F 38.0 °F 33.8 °F 76% 30.48 in - NNW 4.6 mph - N/A   Clear
5:50 PM 41.0 °F 38.0 °F 33.8 °F 76% 30.51 in - NNW 4.6 mph - N/A   Clear
6:00 PM 41 °F - 33 °F 64% 30.53 in 12 mi NNW 4.6 mph - -   Clear
6:50 PM 35.6 °F 32.8 °F 32.0 °F 87% 30.51 in - West 3.5 mph - N/A   Clear
7:50 PM 35.6 °F 31.7 °F 32.0 °F 87% 30.51 in - SW 4.6 mph - N/A   Clear
8:50 PM 33.8 °F 30.8 °F 32.0 °F 93% 30.51 in - SSW 3.5 mph - N/A   Clear
9:00 PM 33 °F - 32 °F 92% 30.56 in 8 mi SSW 3.5 mph - -   Clear
9:50 PM 33.8 °F 30.8 °F 32.0 °F 93% 30.54 in - SW 3.5 mph - N/A   Clear
10:50 PM 33.8 °F - 32.0 °F 93% 30.51 in - West 2.3 mph - N/A   Clear
11:50 PM 32.0 °F 27.5 °F 30.2 °F 93% 30.51 in - WSW 4.6 mph - N/A   Clear